Flag for Germany Weather past 2 weeks in Herford, North Rhine-Westphalia, Germany

Now
54 °F

Passing clouds.


Feels Like: 52 °F
Forecast: 49 / 66 °F
Wind: 7 mph from Southwest

Location: Bueckeburg

Current Time: Aug 21, 2014 at 10:50:07 AM

Latest Report: Aug 21, 2014 at 9:20 AM


Visibility: 4 mi

Pressure: 30.01 "Hg

Humidity: 88%

Dew point: 50 °F

Location of HerfordLocation

Historic Weather in Herford — Graph

°F

Herford temperature yesterday

Maximum temperature yesterday: 64 °F (at 3:20 PM)
Minimum temperature yesterday: 50 °F (at 1:20 AM)
Average temperature yesterday: 54 °F

Past Weeks' High & Low Weather Summary

 TemperatureHumidityPressure
High79 °F (Aug 8, 3:20 PM)100% (Aug 7, 5:20 AM)30.07 "Hg (Aug 7, 5:20 AM)
Low50 °F (Aug 20, 1:20 AM)38% (Aug 11, 5:20 PM)29.56 "Hg (Aug 10, 8:20 PM)
Average62 °F73%29.84 "Hg
* Reported Aug 6 9:20 AM — Aug 21 9:20 AM, Herford, Weather by CustomWeather, © 2014

Note: Actual official high and low records may vary slightly from our data, if they occured in-between our weather recording intervals... More about our weather records

Advertising

Herford weather history for previous 24 hours

 ConditionsComfort  
Time TempWeatherWind HumidityBarometerVisibility
9:20 AM
Aug 21
54 °FPassing clouds.7 mph88%30.01 "Hg4 mi
8:20 AM52 °FFog.5 mph88%30.01 "Hg3 mi
7:20 AM50 °FFog.6 mph88%30.01 "Hg2 mi
6:20 AM50 °FFog.6 mph94%30.01 "Hg2 mi
5:20 AM50 °FFog.7 mph88%30.01 "Hg5 mi
4:20 AM50 °FPassing clouds.2 mph88%29.98 "HgN/A
3:20 AM52 °FPartly cloudy.7 mph88%29.98 "HgN/A
2:20 AM52 °FPartly cloudy.2 mph88%29.98 "HgN/A
1:20 AM54 °FPassing clouds.6 mph82%30.01 "HgN/A
12:20 AM54 °FPassing clouds.5 mph82%30.01 "HgN/A
11:20 PM
Aug 20
54 °FPassing clouds.3 mph82%29.98 "HgN/A
10:20 PM50 °FPassing clouds.3 mph94%29.98 "HgN/A
9:20 PM52 °FScattered clouds.5 mph88%29.98 "HgN/A
8:20 PM55 °FScattered clouds.5 mph82%29.98 "HgN/A
7:20 PM57 °FPartly sunny.2 mph77%29.98 "HgN/A
6:20 PM57 °FPartly sunny.2 mph77%29.98 "HgN/A
5:20 PM55 °FBroken clouds.3 mph82%29.98 "HgN/A
4:20 PM54 °FRain showers. Broken clouds.5 mph88%29.98 "Hg5 mi
3:20 PM64 °FScattered clouds.10 mph52%29.98 "HgN/A
2:20 PM59 °FScattered clouds.13 mph63%29.98 "HgN/A
1:20 PM61 °FScattered showers. Scattered clouds.12 mph59%29.98 "HgN/A
12:20 PM63 °FScattered clouds.16 mph59%29.95 "HgN/A
11:20 AM61 °FScattered clouds.16 mph63%29.95 "HgN/A
10:20 AM57 °FPassing clouds.14 mph72%29.95 "HgN/A
Weather by CustomWeather, © 2014

See weather overviewHow to use our weather pages